COSMOS 1691 DEB, 16268

Orbit data source: Space-Track

COSMOS 1691 DEB, 16268 is space debris in LEO originally from a launch on Wed, 09 Oct 1985 UTC launched from the Plesetsk Missile And Space Complex (PKMTR). Debris objects in space refer to the collection of defunct objects orbiting the Earth. Examples of debris include non-operational satellites, rocket bodies, and fragments generated from explosions, collisions, or faulty payload assembly.

Loading next visibility...
Identifier
16268, 1985-094M
Orbit
LEO
Country
Flag of CISCIS
Related business
Manufacturer
Unknown
Mission
Spacecraft
Bus & Motor
Unknown
Mass
Unknown
Launch date (UTC)
1985-10-09 (41 years ago)
Launch vehicle
Unknown
Launch site
Plesetsk Missile And Space Complex (PKMTR)
Object type
Payload
Rocket body
Debris
Shape & HBR
Unknown shape, 0.1 m
Radar Cross Section
Small (<0.1 m²)

Expand to show TLE details & history
Last TLE update: 6 hours ago

TLE from 6 hours ago
0 COSMOS 1691 DEB
1 16268U 85094M   26127.58970088  .00000086  00000-0  45354-3 0  9990
2 16268  82.7114 225.2373 0085011 224.9203 197.9827 12.56612504851727
Epoch: 2026-05-07T14:09Z
TLE epoch observation values (Epoch: 2026-05-07T14:09:10.156Z)
Latitude
61.8096°
Longitude
161.24835°
Altitude
1,510.759 km
Speed
7.086 km/s
True Right ascension
15h 55m 53s
True Declination
61° 40' 48"
Sunlit
Object was in daylight at epoch
Visualization orbit readout
Latitude
Unknown
Longitude
Unknown
Altitude
Unknown
Speed
Unknown
Apparent Right ascension
Unknown
Apparent Declination
Unknown
Sunlit
N/A
Visualization observer readout
Local Sidereal Time
04:29:42
Azimuth
Unknown
Elevation
Unknown
Doppler factor
Unknown
Orbital elements
Apogee altitude
1,500.696 km
Perigee altitude
1,367.867 km
Semi-major axis
7,812.418 km
Eccentricity
0.0085
Inclination
82.7114°
RAAN
225.2373°
Arg. of periapsis
224.9203°
True anomaly
197.68496°
Mean anomaly
197.9827°
Eccentric anomaly
197.83353°
Mean motion
3.14315 °/min
Orbital period
114.53 mins
BSTAR
0.00045354
Loading maneuver chart data...
Computing Atmospheric mass density...
Loading historical data...
Loading historical data...
Loading historical data...
Loading historical data...
Loading historical data...
Loading historical data...
Loading historical data...

Documentation

Showing up to 5 results
|